Weather History for KPTS - May, 2013

Change the Weather History Date:

Thursday, May 9, 2013

  Actual Average (KJLN) Record (KJLN)
Temperature  
Mean Temperature 68 °F 65 °F  
Max Temperature 75 °F 76 °F 89 °F (2011)
Min Temperature 60 °F 54 °F 35 °F (1980)
Degree Days  
Heating Degree Days 0 3  
Month to date heating degree days 31  
Since 1 July heating degree days 4034  
Cooling Degree Days 2 3  
Month to date cooling degree days 23  
Year to date cooling degree days 77  
Growing Degree Days 18 (Base 50)    
Moisture  
Dew Point 64 °F    
Average Humidity 83    
Maximum Humidity 100    
Minimum Humidity 64    
Precipitation  
Precipitation 0.00 in 0.19 in 2.25 in (2000)
Month to date precipitation 1.74  
Year to date precipitation 13.98  
Sea Level Pressure  
Sea Level Pressure 29.92 in    
Wind  
Wind Speed 7 mph (WSW)    
Max Wind Speed 14 mph    
Max Gust Speed 20 mph    
Visibility 10 miles    
Events Thunderstorm    
T = Trace of Precipitation, MM = Missing Value Source: NWS Daily Summary

Daily Weather History Graph

Daily Weather History Graph

Search for Another Location

Airport or City:

Trip Planner

Search our weather history database for the weather conditions in past years. The results will help you decide how hot, cold, wet, or windy it might be!

Date:

Astronomy

May. 09, 2013 Rise Set
Actual Time 6:15 AM CDT 8:16 PM CDT
Civil Twilight 5:46 AM CDT 8:45 PM CDT
Nautical Twilight 5:11 AM CDT 9:20 PM CDT
Astronomical Twilight 4:33 AM CDT 9:58 PM CDT
Moon 5:59 AM CDT (5/9) 8:12 PM CDT (5/9)
Length of Visible Light 14h 58m
Length of Day
14h 01m
Waning Crescent, 0% of the Moon is Illuminated
May 9
Waning Crescent
May 9
New
May 17
First Quarter
May 24
Full
May 31
Last Quarter

Hourly Weather History & Observations

Time (CDT) Temp. Dew Point Humidity Pressure Visibility Wind Dir Wind Speed Gust Speed Precip Events Conditions
1:15 AM 70.9 °F 58.3 °F 64% 29.91 in 10.0 mi SW 12.7 mph 18.4 mph N/A   Clear
3:15 AM 65.8 °F 58.3 °F 77% 29.91 in 10.0 mi WNW 3.5 mph - N/A   Scattered Clouds
4:55 AM - - N/A% 29.88 in - Calm Calm - N/A   Unknown
6:15 AM 61.9 °F 62.1 °F 100% 29.91 in - WSW 12.7 mph - N/A   Overcast
6:35 AM 61.7 °F - N/A% 29.92 in - WSW 9.2 mph - N/A Thunderstorm Thunderstorm
6:55 AM 60.8 °F - N/A% 29.92 in - West 9.2 mph - N/A   Overcast
7:35 AM 60.8 °F - N/A% 29.90 in 10.0 mi WNW 3.5 mph - N/A   Mostly Cloudy
8:15 AM 60.8 °F - N/A% 29.88 in 10.0 mi Calm Calm - N/A   Clear
9:15 AM 62.4 °F 62.6 °F 100% 29.90 in 10.0 mi SSE 6.9 mph - N/A   Clear
9:35 AM 63.7 °F 63.7 °F 100% 29.92 in 10.0 mi SSW 3.5 mph - N/A   Clear
9:55 AM 65.3 °F 65.5 °F 100% 29.92 in 10.0 mi Calm Calm - N/A   Clear
10:35 AM 68.4 °F 67.8 °F 98% 29.94 in 10.0 mi West 4.6 mph - N/A   Mostly Cloudy
10:55 AM 68.0 °F 67.1 °F 97% 29.95 in 10.0 mi West 6.9 mph - N/A   Overcast
11:15 AM 68.0 °F 66.9 °F 96% 29.95 in 10.0 mi WSW 9.2 mph - N/A   Mostly Cloudy
11:35 AM 68.4 °F 66.7 °F 95% 29.95 in 10.0 mi West 6.9 mph - N/A   Mostly Cloudy
12:15 PM 70.5 °F 66.2 °F 86% 29.96 in 10.0 mi West 10.4 mph - N/A   Mostly Cloudy
12:55 PM 70.9 °F 61.9 °F 73% 29.95 in 10.0 mi West 8.1 mph - N/A   Mostly Cloudy
1:15 PM 70.9 °F 61.9 °F 73% 29.95 in 10.0 mi West 8.1 mph - N/A   Scattered Clouds
1:35 PM 70.9 °F 61.0 °F 71% 29.93 in 10.0 mi WNW 4.6 mph - N/A   Scattered Clouds
1:55 PM 70.9 °F 61.3 °F 72% 29.93 in 10.0 mi WSW 8.1 mph - N/A   Clear
2:15 PM 70.9 °F 61.7 °F 73% 29.93 in 10.0 mi WSW 6.9 mph - N/A   Clear
2:35 PM 71.1 °F 61.0 °F 70% 29.93 in 10.0 mi WSW 11.5 mph 19.6 mph N/A   Clear
3:15 PM 71.4 °F 61.2 °F 70% 29.96 in 10.0 mi WSW 13.8 mph 17.3 mph N/A   Mostly Cloudy
3:35 PM 71.2 °F 60.1 °F 68% 29.94 in 10.0 mi WSW 11.5 mph 16.1 mph N/A   Scattered Clouds
3:55 PM 73.2 °F 61.9 °F 68% 29.93 in 10.0 mi West 10.4 mph - N/A   Scattered Clouds
4:15 PM 75.2 °F 63.1 °F 66% 29.92 in 10.0 mi WSW 11.5 mph 16.1 mph N/A   Scattered Clouds
4:35 PM 74.5 °F 62.4 °F 66% 29.92 in 10.0 mi West 8.1 mph - N/A   Scattered Clouds
4:55 PM 73.9 °F 62.2 °F 67% 29.92 in 10.0 mi West 9.2 mph - N/A   Mostly Cloudy
5:15 PM 73.4 °F 62.1 °F 68% 29.92 in 10.0 mi WSW 6.9 mph - N/A   Mostly Cloudy
5:35 PM 72.9 °F 62.1 °F 69% 29.92 in 10.0 mi WSW 9.2 mph - N/A   Mostly Cloudy
5:55 PM 72.1 °F 61.3 °F 69% 29.91 in 10.0 mi WSW 9.2 mph - N/A   Mostly Cloudy
6:15 PM 71.8 °F 62.1 °F 71% 29.90 in 10.0 mi WSW 6.9 mph - N/A Thunderstorm Scattered Clouds
6:35 PM 71.4 °F 62.6 °F 74% 29.88 in 10.0 mi SW 5.8 mph - N/A   Scattered Clouds
6:55 PM 70.9 °F 62.2 °F 74% 29.88 in 10.0 mi SW 8.1 mph - N/A   Clear
7:15 PM 70.9 °F 62.2 °F 74% 29.89 in 10.0 mi WSW 6.9 mph - N/A   Clear
7:35 PM 70.9 °F 62.6 °F 75% 29.90 in 10.0 mi WSW 5.8 mph - N/A   Clear
7:55 PM 70.9 °F 64.2 °F 79% 29.90 in 10.0 mi SW 5.8 mph - N/A   Scattered Clouds
8:15 PM 70.9 °F 65.7 °F 83% 29.91 in 10.0 mi SSW 3.5 mph - N/A   Mostly Cloudy
8:35 PM 70.0 °F 66.2 °F 88% 29.90 in 10.0 mi SSE 3.5 mph - N/A   Scattered Clouds
8:55 PM 68.0 °F 66.7 °F 96% 29.91 in 10.0 mi South 3.5 mph - N/A   Scattered Clouds
9:15 PM 67.1 °F 67.1 °F 100% 29.92 in 10.0 mi South 4.6 mph - N/A   Mostly Cloudy
9:35 PM 66.0 °F 66.2 °F 100% 29.92 in 10.0 mi Calm Calm - N/A   Overcast
9:55 PM 67.6 °F 67.8 °F 100% 29.93 in 10.0 mi SSW 4.6 mph - N/A   Mostly Cloudy
10:15 PM 67.5 °F 67.6 °F 100% 29.93 in 10.0 mi South 8.1 mph - N/A   Mostly Cloudy
10:35 PM 68.4 °F 68.5 °F 100% 29.93 in 10.0 mi South 6.9 mph - N/A   Mostly Cloudy
10:55 PM 68.4 °F 68.5 °F 100% 29.94 in 10.0 mi SW 8.1 mph - N/A   Mostly Cloudy
11:15 PM 68.0 °F 68.2 °F 100% 29.95 in 10.0 mi WSW 3.5 mph - N/A   Mostly Cloudy
11:35 PM 66.6 °F 66.7 °F 100% 29.95 in 10.0 mi Calm Calm - N/A   Mostly Cloudy
11:55 PM 65.8 °F 66.2 °F 100% 29.94 in 10.0 mi SSW 5.8 mph - N/A   Mostly Cloudy